Tracking 31013 objects as of 11-Jul-2025
HD Live streaming from Space Station
objects crossing your sky now

CZ-2C R/B

Track CZ-2C R/B now!


NORAD ID: 28448
Int'l Code: 2004-029B
Perigee: 466.8 km
Apogee: 34,768.7 km
Inclination: 87.6 °
Period: 616.3 minutes
Semi major axis: 23988 km
RCS: 3.1853 m2 (large)
Launch date: July 25, 2004
Source: People's Republic of China (PRC)
Launch site: Taiyaun Space Center, China (TSC)

Note: This is a ROCKET BODY
Your satellite tracking list
Your tracking list is empty




NASA's NSSDC Master Catalog

Two Line Element Set (TLE):
1 28448U 04029B   25186.05635136  .00000253  00000-0  34724-3 0  9995
2 28448  87.6170 241.9583 7149567 279.7563  12.8509  2.33663606163467
Source of the keplerian elements: AFSPC